Regional Weather Roundup
Issued by NWS Sioux Falls, SD

Home | Current Version | Previous Version | Text Only | Print | Product List | Glossary On
Versions: 1 2 3 4 5 6 7 8 9 10 11 12 13 14 15 16 17 18 19 20 21 22 23 24 25 26 27 28 29 30 31 32 33 34 35 36 37 38 39 40 41 42 43 44 45 46 47 48 49 50
000
ASUS43 KFSD 281502
RWRFSD

WEATHER ROUNDUP FOR SE SOUTH DAKOTA/SW MINNESOTA/NW IOWA
NATIONAL WEATHER SERVICE SIOUX FALLS SD
900 AM CST SAT FEB 28 2015

NOTE: "FAIR" INDICATES FEW OR NO CLOUDS BELOW 12,000 FEET WITH NO
SIGNIFICANT WEATHER AND OR OBSTRUCTIONS TO VISIBILITY.


SDZ038>040-050-052>070-281600-
SOUTHEAST SOUTH DAKOTA

CITY           SKY/WX    TMP DP  RH WIND       PRES   REMARKS
CHAMBERLAIN    NOT AVBL
HURON          SUNNY      9   2  73 S14       30.28R WCI  -7
MADISON        FAIR       7   3  85 S15       30.30R WCI -11
MITCHELL       SUNNY     13   5  70 S13       30.32R WCI  -2
SIOUX FALLS    MOSUNNY    9   1  70 S14       30.37R WCI  -7
WINNER         FAIR      17   4  56 S23G29    30.19R WCI  -1
YANKTON        SUNNY     14   7  73 S12       30.40R WCI   0
$$

MNZ071-072-080-081-089-090-097-098-281600-
SOUTHWEST MINNESOTA

CITY           SKY/WX    TMP DP  RH WIND       PRES   REMARKS
FAIRMONT       SUNNY      1  -6  71 S12       30.46R WCI -15
JACKSON        SUNNY      5  -2  72 S9        30.43R WCI  -9
LUVERNE        SUNNY      5   1  85 S12       30.40R WCI -11
MARSHALL       SUNNY     10   0  61 S12       30.39S WCI  -4
MONTEVIDEO     MOSUNNY   10   1  67 SW12      30.39S WCI  -4
PIPESTONE      SUNNY      5   0  78 S12       30.34R WCI -11
REDWOOD FALLS  SUNNY      4  -3  73 S8        30.44S WCI  -9
TRACY          SUNNY      8   0  68 S9        30.38S WCI  -5
WINDOM         SUNNY      7   0  72 S7        30.41S WCI  -5
WORTHINGTON    SUNNY     21  -6  30 S12       30.41R WCI   9
$$

IAZ001>003-012>014-020>022-031-032-NEZ013-014-SDZ071-281600-
NORTHWEST IOWA

CITY           SKY/WX    TMP DP  RH WIND       PRES   REMARKS
DENISON        SUNNY     10   1  67 S13       30.46S WCI  -5
ESTHERVILLE    SUNNY     -3  -7  82 S10       30.45F WCI -20
LE MARS        SUNNY      9   3  78 S6        30.45S WCI  -1
ORANGE CITY    SUNNY      9   0  66 S9        30.41S WCI  -5
SIOUX CITY     SUNNY     11   3  70 S12       30.46R WCI  -3
SPENCER        SUNNY      3  -3  76 S13       30.45R WCI -14
$$

ABBREVIATIONS USED IN REMARKS
   TC - TEMPERATURE IN CELSIUS
  WCI - WIND CHILL INDEX
   HX - HEAT INDEX
  VSB - VISIBILITY




USA.gov is the U.S. government's official web portal to all federal, state and local government web resources and services.